Погода в Петрушиной Горе

Россия / Санкт-Петербург и Ленинградская область     58°49′48″N   30°16′13″E
темп.,
°C
ветер,
м/с
пор.,
м/с
влажн.,
%
обл.,
%
осадки,
мм/ч
давл.,
гПа
погр.,
м
27 января, ср
ср2700:000в499886 0.3 997613
03:000в389793 0.5 997499
06:00−2в269586 0.1 996201
09:00−3св239886 0.1 996124
12:00−2св129359 0.0 998154
15:00−1з118872 0.1 999346
18:00−1зюз1290100 0.0 1000180
21:00−1ююз2389100 0.1 1002256
28 января, чт
чт2800:00−2юз1287100 0.1 1003170
03:00−1зюз0184100 0.1 100423
06:00−1ююв1183100 0.0 100430
09:00−3юв129294 0.0 100535
12:00−2юв238899 0.0 1005266
15:00−1в138998 0.1 1004342
18:00−3всв239899 0.1 1003134
21:00−3в249799 0.3 1002164
29 января, пт
пт2900:00−2вюв2697100 0.3 1001285
03:00−2в2597100 0.7 998271
06:00−3всв2596100 0.6 996286
09:00−3св2496100 1.4 994276
12:00−2св2493100 0.3 993322
15:00−1всв1394100 0.6 991221
18:00−1ююв3593100 0.1 990397
21:00−4ююв1295100 0.1 98925
30 января, сб
сб3000:00−4ю1296100 0.0 98821
03:00−5ю129794 0.0 98821
06:00−5ю129890 0.1 98739
09:00−5ю129787 0.2 98661
12:00−4ююз2391100 0.1 986300
15:00−3ююз2492100 0.5 986390
18:00−4ю2696100 0.3 987323
21:00−4ю2696100 0.6 987297
31 января, вс
вс3100:00−4ююв3795100 0.3 987330
03:00−4ююв3895100 0.7 987523
06:00−5ююв269698 0.3 986261
09:00−5ююв269599 0.5 987288
12:00−4ююв3792100 0.4 987552
15:00−3ююв3594100 0.8 988413
18:00−6юз139499 0.4 989126
21:00−7юз249695 0.4 990131